Regional Weather Roundup
Issued by NWS

Home | Current Version | Previous Version | Text Only | Print | Product List | Glossary Off
Versions: 1 2 3 4 5 6 7 8 9 10 11 12 13 14 15 16 17 18 19 20 21 22 23 24 25 26 27 28 29 30 31 32 33 34 35 36 37 38 39 40 41 42 43 44 45 46 47 48 49 50

934
ASUS43 KDTX 120701
RWRMI
MICHIGAN HOURLY REGIONAL WEATHER ROUNDUP
NATIONAL WEATHER SERVICE DETROIT/PONTIAC MI
200 AM EST TUE DEC 12 2017

NOTE: "FAIR" INDICATES FEW OR NO CLOUDS BELOW 12,000 FEET WITH NO
SIGNIFICANT WEATHER AND/OR OBSTRUCTION TO VISIBILITY.

MIZ047>049-052>055-059>063-066>070-074>076-081>083-120800-
SOUTHEAST LOWER MICHIGAN

CITY           SKY/WX    TMP DP  RH WIND       PRES   REMARKS
ADRIAN         CLOUDY    31  28  89 N13G22    29.67S WCI  21
ALMA           FLURRIES  27  23  87 NW15G22   29.73R WCI  15
ANN ARBOR      CLOUDY    30  28  92 W15G22    29.65S FOG     WCI  19
BAD AXE        FLURRIES  27  25  91 NW17      29.63R WCI  14
CARO           FLURRIES  28  24  88 NW14      29.65S WCI  16
DETROIT CITY   CLOUDY    30  28  92 NW10      29.64R FOG     WCI  21
DETROIT        LGT SNOW  31  28  89 NW14      29.65R FOG     WCI  21
FLINT          LGT SNOW  28  25  88 NW13      29.68R FOG     WCI  17
GROSSE ILE     CLOUDY    31  29  93 NW13      29.64R FOG     WCI  21
HILLSDALE      CLOUDY    30  27  86 NW18G28   29.67R WCI  18
HOWELL         FLURRIES  29  26  88 NW17G29   29.67R WCI  17

CITY           SKY/WX    TMP DP  RH WIND       PRES   REMARKS
JACKSON        CLOUDY    30  24  78 NW14      29.69R WCI  19
LAMBERTVILLE   CLOUDY    30  28  92 NW3       29.67R FOG
LANSING        LGT SNOW  28  26  92 NW14G23   29.72R FOG     WCI  17
LAPEER         FLURRIES  28  26  89 NW12G21   29.64R WCI  18
MASON          LGT SNOW  30  24  80 NW15      29.70R WCI  19
MONROE         LGT SNOW  30  28  92 NW10      29.65R WCI  21
MT. CLEMENS    MOCLDY    30  30 100 NW8       29.61S WCI  22
PONTIAC        MIX PCPN  29  27  92 NW15G25   29.62S FOG     WCI  18
PORT HOPE        N/A     29  23  78 NW21G31   29.60S WCI  16
PORT HURON     CLOUDY    30  27  86 NW10      29.62S WCI  21
TRI CITIES     CLOUDY    28  24  85 NW13      29.69R WCI  17
MIDLAND        CLOUDY    28  21  76 W15G26    29.69R WCI  16
TROY           CLOUDY    32  29  88 NW9G17    29.65S WCI  24
SAGINAW HB     CLOUDY    28  25  86 NW14G22   29.68R WCI  17
$$
MIZ043>046-050>051-056>058-064>065-071>073-077>080-120800-
SOUTHWEST LOWER MICHIGAN

CITY           SKY/WX    TMP DP  RH WIND       PRES   REMARKS
BATTLE CREEK   LGT SNOW  29  25  85 NW16G29   29.74R FOG     WCI  17
BENTON HARBOR  CLOUDY    32  21  64 N12G26    29.83R WCI  23
BIG RAPIDS     CLOUDY    22  17  79 NW12G18   29.76R WCI  11
COLDWATER      CLOUDY    30  28  91 NW12      29.73R WCI  21
FREMONT        FLURRIES  23  17  75 NW23      29.81R WCI   8
HOLLAND        FLURRIES  27  19  72 N18G29    29.82R WCI  14
GRAND RAPIDS   CLOUDY    27  19  72 NW22G29   29.77R WCI  13
IONIA          FLURRIES  28  22  81 NW14G23   29.74R WCI  16
KALAMAZOO      LGT SNOW  29  24  82 N22G33    29.76R WCI  15
LUDINGTON      LGT SNOW  22  13  67 N23G35    29.85R WCI   6
MARSHALL       LGT SNOW  29  26  88 NW8G16    29.72R WCI  21
MOUNT PLEASANT CLOUDY    26  19  72 NW13G24   29.72R WCI  15
MUSKEGON       CLOUDY    27  14  58 N22       29.86R WCI  13
SOUTH HAVEN    CLOUDY    32  20  63 N16G35    29.82R WCI  21
$$
MIZ016>042-120800-
NORTHERN LOWER MICHIGAN

CITY           SKY/WX    TMP DP  RH WIND       PRES   REMARKS
ALPENA         CLOUDY    22  16  78 NW14G26   29.66R WCI   9
BEAVER ISLAND  LGT SNOW  18  11  74 NW18G31   29.82R WCI   2
BELLAIRE       LGT SNOW  21  12  68 N8G31     29.80R WCI  11
CADILLAC       LGT SNOW  19  12  74 NW14G32   29.73R WCI   5
CHARLEVOIX     LGT SNOW  20  11  67 NW24G36   29.83R WCI   3
FRANKFORT      CLOUDY    23  10  58 NW18G30   29.86R WCI   9
GAYLORD        LGT SNOW  16  10  77 NW9G31    29.69R VSB 3/4 WCI   4
GRAYLING       PTCLDY    19   8  64 NW22G29   29.71R WCI   2
HARBOR SPRINGS CLOUDY    18   7  60 NW13G23   29.76R WCI   5
HOUGHTON LAKE  LGT SNOW  20  15  81 NW17G25   29.71R WCI   5
MANISTEE       LGT SNOW  21  15  78 N20G29    29.85R WCI   6
OSCODA         CLOUDY    25  17  72 NW15G22   29.63S WCI  12
PELLSTON       LGT SNOW  18  11  74 NW30G39   29.75R WCI  -1
ROGERS CITY    FLURRIES  21  15  78 W15G23    29.68R WCI   8
TRAVERSE CITY  LGT SNOW  22  15  75 N18G33    29.81R WCI   7
$$
MIZ007>008-015-120800-
EASTERN UPPER MICHIGAN

CITY           SKY/WX    TMP DP  RH WIND       PRES   REMARKS
KINROSS        LGT SNOW  16  11  80 NW28G35   29.69R WCI  -4
MACKINAC ISLAN CLOUDY    18  10  70 NW28G40   29.73R WCI  -1
NEWBERRY       LGT SNOW  11  10  92 NW17G29   29.80R WCI  -6
S. S. MARIE    FLURRIES  15   7  70 N14G24    29.72R WCI   0
MUNISING         N/A     19  16  88 N26G36    29.91R WCI   1
$$
MIZ004>006-011>014-085-120800-
CENTRAL UPPER MICHIGAN

CITY           SKY/WX    TMP DP  RH WIND       PRES   REMARKS
MANISTIQUE     LGT SNOW  14   9  81 NW18G29   29.85R WCI  -3
ESCANABA       PTCLDY    14   3  61 NW15G21   29.93R WCI  -1
MENOMINEE      PTCLDY    15   3  59 N14G22    29.98R WCI   0
$$
MIZ001>003-009>011-084-120800-
WESTERN UPPER MICHIGAN

CITY           SKY/WX    TMP DP  RH WIND       PRES   REMARKS
IRON MOUNTAIN  FLURRIES  12   5  73 NW16G22   29.94S WCI  -5
HOUGHTON       LGT SNOW  10   1  67 N13       30.00R WCI  -5
COPPER HARBOR    N/A     15   8  73 NE26G39   30.00S WCI  -4
IRONWOOD       FLURRIES  12   6  77 NW12      30.05F WCI  -2
$$

ABBREVIATIONS USED IN REMARKS
   TC - TEMPERATURE IN CELSIUS
  WCI - WIND CHILL INDEX
   HX - HEAT INDEX
  VSB - VISIBILITY





USA.gov is the U.S. government's official web portal to all federal, state and local government web resources and services.